Punta Gorda, FL

12:59 AM EST on December 08, 2016 (GMT -0500)
Charlotte County

Weather History for KPGD - February, 2013

Change the Weather History Date:

Sunday, February 10, 2013

  Actual Average Record
Temperature  
Mean Temperature 68 °F -  
Max Temperature 80 °F 73 °F 84 °F (2001)
Min Temperature 55 °F 50 °F 41 °F (2006)
Cooling Degree Days 2    
Growing Degree Days 18 (Base 50)    
Moisture  
Dew Point 58 °F    
Average Humidity 73    
Maximum Humidity 97    
Minimum Humidity 45    
Precipitation  
Precipitation 0.00 in - - ()
Sea Level Pressure  
Sea Level Pressure 30.21 in    
Wind  
Wind Speed 8 mph (East)    
Max Wind Speed 17 mph    
Max Gust Speed 23 mph    
Visibility 10 miles    
Events      
Averages and records for this station are not official NWS values.
T = Trace of Precipitation, MM = Missing Value Source: NWS Daily Summary

Daily Weather History Graph

Daily Weather History Graph

Search for Another Location

Airport or City:

Trip Planner

Search our weather history database for the weather conditions in past years. The results will help you decide how hot, cold, wet, or windy it might be!

Date:

Astronomy

Feb. 10, 2013 Rise Set
Actual Time 7:07 AM EST 6:16 PM EST
Civil Twilight 6:43 AM EST 6:40 PM EST
Nautical Twilight 6:16 AM EST 7:08 PM EST
Astronomical Twilight 5:49 AM EST 7:35 PM EST
Moon 7:03 AM EST (2/10) 6:56 PM EST (2/10)
Length of Visible Light 11h 56m
Length of Day
11h 09m
New Moon, 0% of the Moon is Illuminated
Feb 10
New Moon
Feb 17
First Quarter
Feb 25
Full
Mar 4
Last Quarter
Mar 11
New

Hourly Weather History & Observations

Time (EST) Temp. Heat Index Dew Point Humidity Pressure Visibility Wind Dir Wind Speed Gust Speed Precip Events Conditions
12:53 AM 62.1 °F - 57.9 °F 86% 30.20 in 10.0 mi East 6.9 mph - N/A   Scattered Clouds
1:53 AM 61.0 °F - 57.9 °F 90% 30.20 in 10.0 mi ENE 5.8 mph - N/A   Mostly Cloudy
2:53 AM 59.0 °F - 57.0 °F 93% 30.18 in 10.0 mi East 6.9 mph - N/A   Partly Cloudy
3:53 AM 57.0 °F - 55.9 °F 96% 30.19 in 10.0 mi ENE 3.5 mph - N/A   Clear
4:53 AM 55.9 °F - 55.0 °F 97% 30.19 in 9.0 mi ENE 6.9 mph - N/A   Clear
5:53 AM 57.0 °F - 55.0 °F 93% 30.20 in 10.0 mi East 4.6 mph - N/A   Partly Cloudy
6:53 AM 57.0 °F - 55.0 °F 93% 30.21 in 10.0 mi East 5.8 mph - N/A   Clear
7:53 AM 61.0 °F - 57.9 °F 90% 30.23 in 10.0 mi East 4.6 mph - N/A   Mostly Cloudy
8:53 AM 70.0 °F - 61.0 °F 73% 30.25 in 10.0 mi ESE 13.8 mph - N/A   Mostly Cloudy
9:53 AM 73.9 °F - 61.0 °F 64% 30.26 in 10.0 mi ESE 16.1 mph - N/A   Partly Cloudy
10:53 AM 78.1 °F - 59.0 °F 52% 30.27 in 10.0 mi SE 17.3 mph 23.0 mph N/A   Scattered Clouds
11:53 AM 79.0 °F - 59.0 °F 50% 30.25 in 10.0 mi ESE 11.5 mph 20.7 mph N/A   Scattered Clouds
12:53 PM 80.1 °F 80.4 °F 57.0 °F 45% 30.22 in 10.0 mi ESE 15.0 mph - N/A   Partly Cloudy
1:53 PM 80.1 °F 80.4 °F 57.0 °F 45% 30.19 in 10.0 mi ESE 16.1 mph 20.7 mph N/A   Mostly Cloudy
2:53 PM 80.1 °F 80.6 °F 57.9 °F 47% 30.17 in 10.0 mi SE 11.5 mph - N/A   Clear
3:53 PM 80.1 °F 80.7 °F 59.0 °F 48% 30.17 in 10.0 mi East 16.1 mph - N/A   Mostly Cloudy
4:53 PM 78.1 °F - 57.9 °F 50% 30.17 in 10.0 mi East 15.0 mph - N/A   Mostly Cloudy
5:53 PM 75.0 °F - 59.0 °F 57% 30.18 in 10.0 mi ESE 12.7 mph - N/A   Mostly Cloudy
6:53 PM 72.0 °F - 60.1 °F 66% 30.20 in 10.0 mi East 9.2 mph - N/A   Mostly Cloudy
7:53 PM 69.1 °F - 60.1 °F 73% 30.21 in 10.0 mi ESE 6.9 mph - N/A   Partly Cloudy
8:53 PM 66.0 °F - 59.0 °F 78% 30.22 in 10.0 mi ESE 4.6 mph - N/A   Clear
9:53 PM 64.0 °F - 59.0 °F 84% 30.23 in 10.0 mi ESE 3.5 mph - N/A   Clear
10:53 PM 62.1 °F - 57.9 °F 86% 30.23 in 10.0 mi Calm Calm - N/A   Clear
11:53 PM 59.0 °F - 57.0 °F 93% 30.22 in 10.0 mi East 3.5 mph - N/A   Clear